Location: Anuling
(14.1239°N, 120.8922°E)
Time: 12:13:30
(UTC+00:00)

Cosmos 2218 Rocket - Pass Details

Date: 14 April 2026
Orbit: 955 x 1005 km, 82.9° (Epoch: 11 May)

Event Time Altitude Azimuth Distance (km) Brightness Sun altitude
Exits shadow 10:53:37 10° 75° (ENE) 2,676 5.8 -11.2°
Drops below altitude 10° 10:53:45 10° 74° (ENE) 2,687 5.8 -11.3°
Sets 10:58:35 0° 40° (NE) 3,626 6.7 -12.4°
